Theta_e
281 280 280 280 280 280 280 280 281 281 281 281 282 282 283 283 283 282 282 283 283 283 283 283 284 284 286 287 288 289 291 292 294 295 297 299 295 294 292 295 296 298 299
281 279 279 279 280 280 280 280 280 280 281 281 282 282 283 282 283 283 283 283 283 282 282 283 284 284 285 286 287 288 289 291 293 294 297 296 296 294 292 294 293 294 296
280 280 280 279 279 280 280 280 280 280 281 282 282 282 282 282 283 283 283 282 282 282 282 283 283 283 283 285 286 287 288 290 291 293 295 292 293 291 291 292 293 294 294
280 281 280 280 280 280 280 280 280 281 281 282 282 283 283 283 283 283 283 282 281 281 282 282 282 282 283 284 285 287 287 289 291 292 293 293 291 290 288 287 289 291 292
281 280 281 281 281 280 279 280 280 281 282 281 281 281 282 282 282 283 282 281 282 282 282 282 282 282 282 282 284 285 286 287 290 291 290 288 287 286 285 287 286 287 288
281 281 282 282 282 282 281 281 281 281 280 280 280 280 280 281 282 283 282 280 279 279 281 282 282 281 281 281 283 283 284 285 287 289 289 288 288 289 288 286 285 284 286
282 282 282 283 283 283 282 281 281 281 280 280 280 280 280 280 281 283 282 281 280 280 280 280 280 280 281 281 281 283 283 283 283 285 286 288 287 287 286 285 283 284 284
283 283 283 283 283 283 283 282 282 281 280 280 280 281 280 281 280 282 283 282 280 280 280 281 281 281 281 282 281 281 280 281 283 284 284 284 284 284 284 284 284 283 282
282 283 284 284 283 283 282 282 281 280 280 280 280 280 280 280 280 280 282 283 280 280 281 281 281 281 282 283 281 281 281 279 279 282 282 282 283 282 282 283 282 283 282
282 283 283 284 283 283 282 282 281 280 280 280 280 280 280 280 280 280 281 282 282 281 280 281 280 280 282 283 282 281 280 279 279 279 279 281 280 283 283 283 283 283 281
281 281 281 282 283 283 282 281 280 280 280 280 280 280 280 280 280 280 280 282 282 282 282 282 281 281 280 281 282 281 280 280 280 280 280 280 279 279 279 282 284 282 282
279 280 281 281 282 282 282 282 280 280 279 279 279 279 280 281 280 281 281 282 282 282 282 281 280 281 282 282 282 281 282 281 281 281 281 282 282 280 280 280 279 279 279
276 277 279 280 280 281 281 281 280 279 278 278 278 278 279 281 281 281 280 282 282 282 280 279 280 281 281 281 280 280 281 280 280 280 281 281 281 281 280 280 279 279 279
274 275 276 278 279 279 280 279 279 278 278 277 277 277 278 280 280 281 280 280 280 279 279 280 281 281 282 281 281 281 280 279 279 279 280 279 279 279 279 279 278 278 278
273 274 275 276 277 278 279 279 279 279 278 278 278 278 278 278 280 280 281 281 281 279 280 281 282 282 282 282 282 282 282 281 281 280 279 279 279 279 279 278 278 278 277
272 273 273 274 276 277 278 279 280 280 280 280 280 281 280 280 281 281 282 281 281 282 282 282 282 281 281 282 282 282 283 282 282 281 280 280 279 278 278 278 277 277 277
271 272 273 274 275 276 277 278 279 279 280 281 281 282 283 283 282 282 282 282 283 283 283 283 281 280 280 280 281 281 281 281 281 281 280 279 279 278 277 277 277 277 276
273 273 274 274 274 274 276 277 277 277 277 278 278 279 280 281 281 280 280 281 281 280 280 279 278 278 279 279 278 278 278 278 278 278 278 278 277 277 277 277 276 276 276
272 273 273 273 274 274 274 275 276 276 276 276 276 277 277 277 277 277 276 277 277 276 276 276 276 276 276 276 275 275 274 274 274 275 275 275 275 275 274 274 274 274 274
272 272 272 272 272 272 272 272 273 273 273 274 274 273 274 274 274 274 275 275 275 275 274 274 274 274 274 274 273 273 273 273 273 274 274 274 273 273 273 273 273 273 273
270 271 271 272 272 271 271 271 271 272 272 272 272 273 276 273 273 273 273 273 273 273 273 273 273 272 272 272 272 272 272 273 273 273 273 273 272 272 272 272 272 272 271
269 270 270 270 270 270 270 270 270 270 270 270 270 270 271 270 270 270 271 271 271 271 271 271 271 271 271 272 272 272 272 272 272 272 272 272 272 271 271 270 270 270 270
269 269 269 269 268 268 268 268 268 268 268 268 268 268 268 268 267 267 268 268 268 268 268 268 269 269 269 269 269 269 269 270 269 269 270 270 270 269 269 269 268 268 269
268 268 267 267 266 266 266 266 266 266 266 266 266 266 266 266 266 266 266 266 266 267 267 267 267 267 267 267 267 267 267 268 268 268 268 268 268 268 268 268 268 268 268
267 267 266 266 266 265 265 266 266 266 266 266 266 266 266 266 266 267 267 267 267 267 267 267 267 267 267 267 267 267 266 266 266 267 267 267 267 267 267 267 267 268 268
266 266 266 266 266 266 265 265 265 265 265 265 266 266 266 266 266 266 266 267 267 267 267 267 267 267 267 267 267 268 268 268 268 266 266 266 266 266 266 267 267 267 267
Wind_Speed
9 9 9 8 8 9 11 11 12 12 13 13 14 15 17 18 18 18 19 21 21 22 22 23 26 24 24 25 26 27 25 23 12 18 21 18 17 15 13 10 9 9 9
9 9 8 6 8 9 11 11 11 12 11 11 12 13 15 16 15 16 19 20 21 22 22 22 23 21 21 21 23 25 25 23 20 11 13 10 14 15 14 11 11 8 9
10 9 8 7 8 8 10 10 10 10 9 10 10 11 13 13 14 15 17 19 18 18 18 18 20 18 19 19 20 22 23 23 21 18 10 8 9 14 14 13 13 12 11
10 10 9 7 7 7 9 8 9 7 8 8 9 9 9 10 11 13 16 17 15 15 13 13 15 15 14 15 17 19 19 19 16 13 7 6 8 8 12 13 13 14 12
12 13 11 7 7 8 9 8 8 7 5 7 9 8 9 9 10 12 15 15 15 15 12 11 11 12 13 14 17 20 17 15 13 7 4 4 4 4 8 6 7 11 11
14 14 10 9 8 9 8 8 8 7 8 9 10 10 11 10 10 12 13 15 14 14 16 13 11 12 13 13 12 14 13 14 13 6 5 5 6 9 10 10 8 2 2
15 14 12 11 11 11 10 10 10 10 10 11 11 12 12 11 10 11 12 14 15 13 13 14 15 14 14 11 10 9 9 12 10 9 9 6 6 4 7 7 7 4 3
16 17 15 14 15 13 14 15 14 13 14 13 14 13 14 12 11 11 11 14 12 12 13 13 13 13 13 14 11 8 8 10 14 15 11 10 8 9 5 5 5 5 2
20 21 20 18 19 19 19 19 17 17 17 16 16 16 15 15 12 12 12 13 14 13 11 11 12 13 12 12 14 13 11 9 8 7 7 7 7 6 5 3 3 3 1
21 23 22 22 23 25 24 24 22 20 21 19 19 18 17 19 16 15 12 13 15 14 13 11 10 11 11 12 14 15 12 10 12 10 9 7 9 9 9 6 2 5 2
21 21 21 22 23 25 26 25 24 23 22 22 23 23 22 20 19 17 15 15 16 16 16 16 13 12 10 9 9 12 10 11 10 9 8 8 8 8 7 6 1 5 7
23 22 23 22 24 25 25 27 26 25 25 26 27 28 26 22 18 17 16 15 15 17 20 18 17 15 12 12 11 10 9 10 11 10 9 7 6 5 4 4 6 7 7
25 24 23 22 22 22 24 27 27 26 26 27 25 25 31 27 21 17 17 16 16 18 20 19 16 14 14 14 14 13 11 14 14 13 11 8 5 3 5 8 7 6 7
24 24 22 21 21 20 21 24 25 24 25 24 21 22 28 30 26 21 18 17 17 18 17 15 15 15 14 17 15 12 11 11 10 11 11 11 11 9 9 7 6 8 8
21 23 22 19 19 21 21 21 23 26 25 24 26 27 26 27 28 21 16 16 15 15 14 16 18 20 20 19 19 16 14 11 11 10 10 8 7 7 7 6 7 5 4
19 18 19 18 18 17 19 21 20 21 22 23 24 25 28 28 24 19 17 17 17 16 19 21 19 19 20 19 19 21 18 15 13 11 10 9 8 7 6 5 5 7 9
19 21 20 18 17 17 16 16 16 16 17 16 17 20 24 26 23 22 20 19 20 19 20 16 15 15 16 19 16 11 10 11 11 11 12 11 11 10 9 8 8 8 8
19 19 19 18 19 16 15 16 16 13 12 13 16 14 13 13 13 13 14 15 18 17 18 18 18 17 15 10 10 11 12 11 11 9 9 8 9 10 11 13 13 11 10
20 19 20 17 16 15 14 14 14 14 14 13 12 9 8 9 10 10 10 12 13 12 12 12 13 14 15 16 16 15 14 12 10 9 9 9 6 4 2 5 5 6 7
18 17 17 15 16 16 15 15 14 13 12 12 11 11 12 10 9 9 6 6 7 9 10 11 12 12 12 11 11 11 11 11 10 7 6 5 6 5 3 4 4 5 6
16 15 14 13 15 15 15 15 14 14 14 13 12 11 11 9 8 7 7 6 5 6 8 8 10 11 11 11 9 8 8 8 8 7 7 6 5 5 5 5 5 5 6
13 12 12 14 13 14 14 13 13 12 12 13 13 12 11 11 11 11 10 9 10 9 9 9 9 8 8 8 8 8 8 8 8 7 7 6 5 5 8 10 10 10 9
10 10 10 11 12 11 12 12 12 12 13 12 13 14 14 14 14 14 14 13 13 13 12 12 13 13 12 12 13 13 14 14 13 13 13 13 12 11 9 7 7 6 5
9 9 10 10 11 12 13 14 14 14 15 16 16 17 17 17 18 18 18 18 18 17 16 16 16 18 17 16 15 15 15 15 14 14 13 12 11 10 10 10 9 8 7
9 9 9 11 13 15 16 17 18 18 20 20 21 21 22 22 23 23 23 22 22 22 22 20 19 19 19 18 18 18 18 18 18 16 16 16 16 15 15 13 12 11 10
11 12 12 14 15 17 19 21 22 24 25 26 26 26 26 26 27 27 27 26 26 26 24 23 22 21 20 20 19 19 19 19 19 19 20 20 20 19 17 17 15 13 12
Wind_Direction
284 291 287 278 290 289 286 291 297 304 308 309 313 312 311 312 315 313 308 306 308 297 294 293 295 293 284 278 273 266 259 251 255 273 271 276 288 282 266 261 276 276 304
279 278 285 287 287 289 290 293 295 299 305 307 309 309 312 313 317 321 320 317 313 308 309 303 298 302 300 292 283 272 262 257 252 261 272 258 279 281 272 268 271 286 293
264 278 279 271 274 289 292 293 292 298 305 309 313 312 315 319 327 332 326 321 312 311 311 309 310 311 312 314 299 282 276 276 262 248 248 242 286 279 281 276 275 277 281
266 269 268 271 274 281 282 287 290 299 303 313 312 315 323 324 327 336 336 331 326 323 318 316 319 315 312 317 322 306 297 287 277 265 269 300 272 287 281 276 272 273 277
264 262 264 266 269 276 279 275 274 280 290 295 295 295 295 303 322 324 323 341 344 340 343 337 340 339 334 319 312 314 331 302 279 252 235 254 263 266 249 271 261 268 266
263 263 265 261 261 261 264 266 271 275 278 281 291 299 305 307 320 322 318 318 329 338 345 354 360 356 348 340 333 324 335 334 303 270 221 221 247 258 268 263 253 269 286
265 268 267 263 261 257 257 261 263 272 280 282 287 291 298 303 305 312 315 316 317 325 331 337 338 345 348 348 345 354 2 13 354 316 308 295 297 289 289 252 216 201 244
271 270 269 265 265 263 260 262 268 274 274 278 282 285 291 295 298 294 308 312 311 316 322 325 334 344 356 341 347 353 7 14 27 22 7 339 316 312 296 284 261 232 246
275 274 274 270 267 265 262 265 270 270 273 275 281 283 285 291 292 292 296 307 311 309 315 316 323 333 345 352 348 349 357 21 34 34 36 39 36 31 34 57 107 95 346
300 294 290 279 268 265 265 267 270 270 274 278 280 281 284 288 290 287 283 290 296 303 305 306 309 312 324 339 342 348 350 359 5 17 24 27 29 34 28 16 51 34 49
320 311 300 290 278 272 270 267 267 268 270 272 276 282 284 285 286 282 274 269 277 288 294 302 306 311 312 316 321 331 335 332 345 354 3 8 4 1 9 16 28 348 342
319 311 302 296 287 281 276 272 267 264 265 270 276 281 282 285 285 281 272 263 270 274 282 292 298 302 305 306 305 306 302 305 321 325 342 1 4 352 343 325 299 294 290
333 322 314 305 294 284 276 274 269 264 261 266 270 275 283 287 289 281 271 267 266 265 274 283 287 287 291 294 295 293 282 287 295 304 314 326 337 324 328 323 304 293 292
331 330 325 316 308 298 284 277 269 261 257 257 257 262 274 284 288 289 284 275 271 266 271 276 282 286 290 300 300 303 293 285 278 277 285 303 300 298 308 316 321 329 331
328 327 326 322 316 309 298 287 274 272 261 257 259 266 271 276 283 291 282 279 276 271 279 279 278 282 289 298 306 307 303 292 283 290 288 291 296 294 309 314 301 283 250
328 327 324 320 316 312 302 295 294 275 271 267 269 268 275 277 280 275 274 271 267 268 273 271 272 276 278 286 293 300 302 289 285 285 282 283 287 292 293 287 264 261 270
329 332 331 330 319 313 317 313 302 306 293 287 284 282 272 271 275 278 278 275 273 273 268 273 281 286 291 296 296 297 303 302 292 280 282 284 290 291 291 292 289 284 268
347 349 340 335 338 338 331 326 327 320 316 312 316 306 309 301 291 292 290 286 279 271 276 287 290 293 293 286 290 298 299 298 294 292 291 295 297 296 291 293 299 294 296
354 351 350 351 355 351 351 347 345 336 330 329 339 342 325 308 296 298 306 287 291 295 295 288 288 292 294 296 297 297 297 299 299 296 296 295 291 287 7 351 4 10 5
360 1 1 9 12 13 14 13 8 4 3 3 7 354 339 335 338 335 316 281 286 294 300 298 295 291 293 297 301 302 302 304 308 306 301 296 308 320 336 353 1 0 3
3 6 8 19 25 27 27 26 24 25 22 20 13 4 9 9 2 355 351 346 332 313 304 300 300 300 297 296 296 295 297 300 302 304 306 308 309 315 322 329 331 336 339
8 12 20 25 23 24 23 25 24 21 16 8 0 355 355 356 352 344 336 331 324 317 311 306 304 301 303 303 290 283 285 289 291 285 279 273 273 288 300 300 296 302 313
6 10 18 22 19 14 15 14 9 3 356 351 347 342 341 337 332 327 322 317 313 309 305 301 296 292 287 283 278 276 277 277 276 273 272 272 277 279 280 284 296 293 295
354 360 3 5 3 1 358 352 348 343 339 334 331 329 326 322 318 314 312 310 306 300 295 292 287 285 283 279 273 271 271 270 268 266 262 263 263 264 263 266 265 269 278
337 343 346 346 344 341 336 335 332 331 327 324 321 319 317 315 312 310 308 307 303 300 298 294 289 284 282 280 277 273 269 265 262 260 257 258 260 263 263 261 263 260 267
320 321 324 325 327 328 327 324 322 321 320 318 316 314 313 311 309 308 308 306 304 302 298 296 293 289 286 281 276 272 267 263 260 255 253 254 256 257 257 257 256 255 264